STARLINK W

Last updated on Sun Jun 09 2024 00:02:05 GMT+0000 (Coordinated Universal Time)

1 59942U 24106W 24160.58335648 -.01061557 33915-3 -29823-2 0 9994 2 59942 43.0017 19.7923 0001638 264.3467 66.8819 15.92644480 2358

Satellite not in orbit